Flag for Germany Weather past 2 weeks in Norderstedt, Schleswig-Holstein, Germany

Now
37 °F

Sprinkles. Passing clouds.


Feels Like: 29 °F
Forecast: 36 / 44 °F
Wind: 13 mph from Southwest

Location: Hamburg-Fuhlsbuettel

Current Time: Apr 2, 2015 at 1:06:04 AM

Latest Report: Apr 2, 2015 at 12:20 AM


Visibility: N/A

Pressure: 29.77 "Hg

Humidity: 87%

Dew point: 34 °F

Location of NorderstedtLocation

Historic Weather in Norderstedt — Graph

°F

Norderstedt temperature yesterday

Maximum temperature yesterday: 46 °F (at 2:50 PM)
Minimum temperature yesterday: 36 °F (at 10:50 AM)
Average temperature yesterday: 40 °F

Past Weeks' High & Low Weather Summary

 TemperatureHumidityPressure
High59 °F (Mar 18, 3:50 PM)100% (Mar 20, 6:20 AM)30.45 "Hg (Mar 20, 6:20 AM)
Low28 °F (Mar 20, 6:20 AM)27% (Mar 19, 2:50 PM)28.91 "Hg (Mar 29, 10:20 PM)
Average43 °F76%29.85 "Hg
* Reported Mar 17 11:20 PM — Apr 2 12:20 AM, Norderstedt, Weather by CustomWeather, © 2015

Note: Actual official high and low records may vary slightly from our data, if they occured in-between our weather recording intervals... More about our weather records

Advertising

Norderstedt weather history for previous 24 hours

 ConditionsComfort  
Time TempWeatherWind HumidityBarometerVisibility
12:20 AM
Thu, Apr 2
37 °FSprinkles. Passing clouds.13 mph87%29.77 "HgN/A
11:50 PM
Wed, Apr 1
37 °FPassing clouds.9 mph87%29.77 "HgN/A
11:20 PM37 °FPassing clouds.10 mph87%29.77 "HgN/A
10:50 PM37 °FPassing clouds.10 mph81%29.80 "HgN/A
10:20 PM37 °FPassing clouds.14 mph81%29.80 "HgN/A
9:50 PM39 °FPartly cloudy.14 mph81%29.80 "HgN/A
9:20 PM39 °FPassing clouds.15 mph75%29.80 "HgN/A
8:50 PM39 °FScattered showers. Scattered clouds.16 mph75%29.80 "HgN/A
8:20 PM41 °FPartly sunny.17 mph70%29.83 "HgN/A
7:50 PM41 °FScattered clouds.17 mph66%29.80 "HgN/A
7:20 PM41 °FScattered clouds.16 mph70%29.83 "HgN/A
6:50 PM43 °FPartly sunny.21 mph66%29.80 "HgN/A
6:20 PM43 °FScattered showers. Scattered clouds.20 mph66%29.80 "HgN/A
5:50 PM45 °FScattered showers. Scattered clouds.24 mph53%29.80 "HgN/A
5:20 PM45 °FScattered showers. Scattered clouds.20 mph57%29.80 "HgN/A
4:50 PM43 °FSnow flurries. Scattered clouds.25 mph57%29.80 "HgN/A
4:20 PM45 °FScattered clouds.26 mph39%29.77 "HgN/A
3:50 PM46 °FScattered clouds.26 mph46%29.77 "HgN/A
3:20 PM45 °FScattered clouds.30 mph46%29.77 "HgN/A
2:50 PM46 °FScattered showers. Scattered clouds.26 mph50%29.77 "HgN/A
2:20 PM45 °FScattered clouds.29 mph49%29.77 "HgN/A
1:50 PM45 °FScattered clouds.31 mph49%29.74 "HgN/A
1:20 PM45 °FScattered clouds.29 mph53%29.74 "HgN/A
12:50 PM45 °FScattered clouds.28 mph53%29.74 "HgN/A
12:20 PM45 °FPassing clouds.32 mph57%29.71 "HgN/A
11:50 AM43 °FScattered clouds.30 mph66%29.71 "HgN/A
11:20 AM39 °FPartly sunny.16 mph87%29.71 "HgN/A
10:50 AM36 °FSnow flurries. Broken clouds.25 mph93%29.71 "HgN/A
10:20 AM41 °FSprinkles. Broken clouds.22 mph81%29.65 "HgN/A
9:50 AM39 °FSprinkles. Broken clouds.21 mph87%29.68 "HgN/A
9:20 AM41 °FSprinkles. Broken clouds.21 mph81%29.65 "HgN/A
8:50 AM41 °FScattered clouds.14 mph87%29.62 "HgN/A
8:20 AM39 °FScattered clouds.13 mph87%29.62 "HgN/A
7:50 AM37 °FPassing clouds.10 mph93%29.62 "HgN/A
7:20 AM37 °FScattered showers. Passing clouds.14 mph93%29.62 "HgN/A
6:50 AM37 °FScattered showers. Passing clouds.9 mph93%29.59 "HgN/A
6:20 AM37 °FRain showers. Partly cloudy.12 mph93%29.59 "Hg5 mi
5:50 AM37 °FSprinkles. Partly cloudy.12 mph93%29.56 "HgN/A
5:20 AM37 °FSprinkles. Passing clouds.14 mph93%29.56 "HgN/A
4:50 AM37 °FSprinkles. Passing clouds.13 mph93%29.56 "HgN/A
4:20 AM37 °FPassing clouds.9 mph93%29.56 "HgN/A
3:50 AM37 °FSprinkles. Passing clouds.17 mph93%29.53 "HgN/A
3:20 AM37 °FSprinkles. Passing clouds.14 mph93%29.53 "HgN/A
2:50 AM37 °FPassing clouds.8 mph93%29.53 "HgN/A
2:20 AM37 °FSprinkles. Partly cloudy.9 mph93%29.50 "HgN/A
1:50 AM37 °FSprinkles. Passing clouds.21 mph87%29.50 "HgN/A
1:20 AM37 °FPassing clouds.13 mph93%29.50 "HgN/A
Weather by CustomWeather, © 2015

See weather overviewHow to use our weather pages